Time,TemperatureF,DewpointF,PressureIn,WindDirection,WindDirectionDegrees,WindSpeedMPH,WindSpeedGustMPH,Humidity,HourlyPrecipIn,Conditions,Clouds,dailyrainin,SoftwareType,DateUTC
2013-05-12 00:32:00,47.0,-99.9,-100.00,WNW,293,4.0,5.0,-999,0.00,,,0.00,,2013-05-12 05:32:00,
2013-05-12 00:42:00,47.0,-99.9,-100.00,WNW,293,4.0,5.0,-999,0.00,,,0.00,,2013-05-12 05:42:00,
2013-05-12 00:52:00,47.0,-99.9,-100.00,WNW,293,4.0,5.0,-999,0.00,,,0.00,,2013-05-12 05:52:00,
2013-05-12 01:02:00,46.0,-99.9,-100.00,WNW,290,5.0,8.0,-999,0.00,,,0.00,,2013-05-12 06:02:00,
2013-05-12 01:11:00,46.0,-99.9,-100.00,WNW,290,5.0,8.0,-999,0.00,,,0.00,,2013-05-12 06:11:00,
2013-05-12 01:22:00,46.0,-99.9,-100.00,WNW,290,5.0,8.0,-999,0.00,,,0.00,,2013-05-12 06:22:00,
2013-05-12 01:30:00,46.0,-99.9,-100.00,West,264,6.0,8.0,-999,0.00,,,0.00,,2013-05-12 06:30:00,
2013-05-12 01:32:00,46.0,-99.9,-100.00,West,281,4.0,8.0,-999,0.00,,,0.00,,2013-05-12 06:32:00,
2013-05-12 01:42:00,46.0,-99.9,-100.00,West,281,4.0,8.0,-999,0.00,,,0.00,,2013-05-12 06:42:00,
2013-05-12 01:52:00,46.0,-99.9,-100.00,West,281,4.0,8.0,-999,0.00,,,0.00,,2013-05-12 06:52:00,
2013-05-12 02:02:00,46.0,-99.9,-100.00,West,264,6.0,8.0,-999,0.00,,,0.00,,2013-05-12 07:02:00,
2013-05-12 02:11:00,46.0,-99.9,-100.00,West,264,6.0,8.0,-999,0.00,,,0.00,,2013-05-12 07:11:00,
2013-05-12 02:22:00,46.0,-99.9,-100.00,West,264,6.0,8.0,-999,0.00,,,0.00,,2013-05-12 07:22:00,
2013-05-12 03:02:00,44.0,-99.9,-100.00,WNW,290,5.0,7.0,-999,0.00,,,0.00,,2013-05-12 08:02:00,
2013-05-12 03:12:00,44.0,-99.9,-100.00,WNW,290,5.0,7.0,-999,0.00,,,0.00,,2013-05-12 08:12:00,
2013-05-12 03:22:00,44.0,-99.9,-100.00,WNW,290,5.0,7.0,-999,0.00,,,0.00,,2013-05-12 08:22:00,
2013-05-12 03:32:00,43.0,-99.9,-100.00,WNW,296,6.0,10.0,-999,0.00,,,0.00,,2013-05-12 08:32:00,
2013-05-12 03:42:00,43.0,-99.9,-100.00,WNW,296,6.0,10.0,-999,0.00,,,0.00,,2013-05-12 08:42:00,
2013-05-12 03:53:00,43.0,-99.9,-100.00,WNW,296,6.0,10.0,-999,0.00,,,0.00,,2013-05-12 08:53:00,
2013-05-12 04:01:00,42.0,-99.9,-100.00,WNW,303,7.0,8.0,-999,0.00,,,0.00,,2013-05-12 09:01:00,
2013-05-12 04:11:00,42.0,-99.9,-100.00,WNW,303,7.0,8.0,-999,0.00,,,0.00,,2013-05-12 09:11:00,
2013-05-12 04:22:00,42.0,-99.9,-100.00,WNW,303,7.0,8.0,-999,0.00,,,0.00,,2013-05-12 09:22:00,
2013-05-12 04:33:00,42.0,-99.9,-100.00,WNW,298,8.0,11.0,-999,0.00,,,0.00,,2013-05-12 09:33:00,
2013-05-12 04:43:00,42.0,-99.9,-100.00,WNW,298,8.0,11.0,-999,0.00,,,0.00,,2013-05-12 09:43:00,
2013-05-12 04:53:00,42.0,-99.9,-100.00,WNW,298,8.0,11.0,-999,0.00,,,0.00,,2013-05-12 09:53:00,
2013-05-12 05:03:00,42.0,-99.9,-100.00,WNW,294,6.0,8.0,-999,0.00,,,0.00,,2013-05-12 10:03:00,
2013-05-12 05:12:00,42.0,-99.9,-100.00,WNW,294,6.0,8.0,-999,0.00,,,0.00,,2013-05-12 10:12:00,
2013-05-12 05:23:00,42.0,-99.9,-100.00,WNW,294,6.0,8.0,-999,0.00,,,0.00,,2013-05-12 10:23:00,
2013-05-12 05:33:00,40.0,-99.9,-100.00,WNW,292,7.0,9.0,-999,0.00,,,0.00,,2013-05-12 10:33:00,
2013-05-12 05:42:00,40.0,-99.9,-100.00,WNW,292,7.0,9.0,-999,0.00,,,0.00,,2013-05-12 10:42:00,
2013-05-12 05:52:00,40.0,-99.9,-100.00,WNW,292,7.0,9.0,-999,0.00,,,0.00,,2013-05-12 10:52:00,
2013-05-12 06:03:00,41.0,-99.9,-100.00,WNW,291,7.0,10.0,-999,0.00,,,0.00,,2013-05-12 11:03:00,
2013-05-12 06:12:00,41.0,-99.9,-100.00,WNW,291,7.0,10.0,-999,0.00,,,0.00,,2013-05-12 11:12:00,
2013-05-12 06:22:00,41.0,-99.9,-100.00,WNW,291,7.0,10.0,-999,0.00,,,0.00,,2013-05-12 11:22:00,
2013-05-12 06:30:00,40.0,-99.9,-100.00,WNW,296,6.0,12.0,-999,0.00,,,0.00,,2013-05-12 11:30:00,
2013-05-12 06:32:00,40.0,-99.9,-100.00,WNW,299,6.0,8.0,-999,0.00,,,0.00,,2013-05-12 11:32:00,
2013-05-12 06:42:00,40.0,-99.9,-100.00,WNW,299,6.0,8.0,-999,0.00,,,0.00,,2013-05-12 11:42:00,
2013-05-12 06:52:00,40.0,-99.9,-100.00,WNW,299,6.0,8.0,-999,0.00,,,0.00,,2013-05-12 11:52:00,
2013-05-12 07:02:00,40.0,-99.9,-100.00,WNW,296,6.0,12.0,-999,0.00,,,0.00,,2013-05-12 12:02:00,
2013-05-12 07:11:00,40.0,-99.9,-100.00,WNW,296,6.0,12.0,-999,0.00,,,0.00,,2013-05-12 12:11:00,
2013-05-12 07:22:00,40.0,-99.9,-100.00,WNW,296,6.0,12.0,-999,0.00,,,0.00,,2013-05-12 12:22:00,
2013-05-12 08:02:00,44.0,-99.9,-100.00,West,281,5.0,7.0,-999,0.00,,,0.00,,2013-05-12 13:02:00,
2013-05-12 08:11:00,44.0,-99.9,-100.00,West,281,5.0,7.0,-999,0.00,,,0.00,,2013-05-12 13:11:00,
2013-05-12 08:22:00,44.0,-99.9,-100.00,West,281,5.0,7.0,-999,0.00,,,0.00,,2013-05-12 13:22:00,
2013-05-12 08:32:00,45.0,-99.9,-100.00,WNW,295,7.0,10.0,-999,0.00,,,0.00,,2013-05-12 13:32:00,
2013-05-12 08:42:00,45.0,-99.9,-100.00,WNW,295,7.0,10.0,-999,0.00,,,0.00,,2013-05-12 13:42:00,
2013-05-12 08:52:00,45.0,-99.9,-100.00,WNW,295,7.0,10.0,-999,0.00,,,0.00,,2013-05-12 13:52:00,
2013-05-12 09:02:00,45.0,-99.9,-100.00,NW,311,8.0,11.0,-999,0.00,,,0.00,,2013-05-12 14:02:00,
2013-05-12 09:11:00,45.0,-99.9,-100.00,NW,311,8.0,11.0,-999,0.00,,,0.00,,2013-05-12 14:11:00,
2013-05-12 09:22:00,45.0,-99.9,-100.00,NW,311,8.0,11.0,-999,0.00,,,0.00,,2013-05-12 14:22:00,
2013-05-12 09:32:00,46.0,-99.9,-100.00,WNW,285,9.0,13.0,-999,0.00,,,0.00,,2013-05-12 14:32:00,
2013-05-12 09:42:00,46.0,-99.9,-100.00,WNW,285,9.0,13.0,-999,0.00,,,0.00,,2013-05-12 14:42:00,
2013-05-12 09:52:00,46.0,-99.9,-100.00,WNW,285,9.0,13.0,-999,0.00,,,0.00,,2013-05-12 14:52:00,
2013-05-12 10:01:00,47.0,-99.9,-100.00,NW,309,10.0,15.0,-999,0.00,,,0.00,,2013-05-12 15:01:00,
2013-05-12 10:11:00,47.0,-99.9,-100.00,NW,309,10.0,15.0,-999,0.00,,,0.00,,2013-05-12 15:11:00,
2013-05-12 10:21:00,47.0,-99.9,-100.00,NW,309,10.0,15.0,-999,0.00,,,0.00,,2013-05-12 15:21:00,
2013-05-12 10:34:00,47.0,-99.9,-100.00,WNW,299,11.0,14.0,-999,0.00,,,0.00,,2013-05-12 15:34:00,
2013-05-12 10:43:00,47.0,-99.9,-100.00,WNW,299,11.0,14.0,-999,0.00,,,0.00,,2013-05-12 15:43:00,
2013-05-12 10:53:00,47.0,-99.9,-100.00,WNW,299,11.0,14.0,-999,0.00,,,0.00,,2013-05-12 15:53:00,
2013-05-12 11:03:00,48.0,-99.9,-100.00,WNW,299,11.0,16.0,-999,0.00,,,0.00,,2013-05-12 16:03:00,
2013-05-12 11:13:00,48.0,-99.9,-100.00,WNW,299,11.0,16.0,-999,0.00,,,0.00,,2013-05-12 16:13:00,
2013-05-12 11:23:00,48.0,-99.9,-100.00,WNW,299,11.0,16.0,-999,0.00,,,0.00,,2013-05-12 16:23:00,
2013-05-12 11:33:00,48.0,-99.9,-100.00,WNW,289,10.0,15.0,-999,0.00,,,0.00,,2013-05-12 16:33:00,
2013-05-12 11:42:00,48.0,-99.9,-100.00,WNW,289,10.0,15.0,-999,0.00,,,0.00,,2013-05-12 16:42:00,
2013-05-12 11:53:00,48.0,-99.9,-100.00,WNW,289,10.0,15.0,-999,0.00,,,0.00,,2013-05-12 16:53:00,
2013-05-12 12:02:00,49.0,-99.9,-100.00,WNW,299,10.0,20.0,-999,0.00,,,0.00,,2013-05-12 17:02:00,
2013-05-12 12:12:00,49.0,-99.9,-100.00,WNW,299,10.0,20.0,-999,0.00,,,0.00,,2013-05-12 17:12:00,
2013-05-12 12:22:00,49.0,-99.9,-100.00,WNW,299,10.0,20.0,-999,0.00,,,0.00,,2013-05-12 17:22:00,
2013-05-12 12:32:00,50.0,-99.9,-100.00,WNW,296,13.0,18.0,-999,0.00,,,0.00,,2013-05-12 17:32:00,
2013-05-12 12:42:00,50.0,-99.9,-100.00,WNW,296,13.0,18.0,-999,0.00,,,0.00,,2013-05-12 17:42:00,
2013-05-12 12:53:00,50.0,-99.9,-100.00,WNW,296,13.0,18.0,-999,0.00,,,0.00,,2013-05-12 17:53:00,
2013-05-12 13:01:00,51.0,-99.9,-100.00,WNW,287,10.0,21.0,-999,0.00,,,0.00,,2013-05-12 18:01:00,
2013-05-12 13:12:00,51.0,-99.9,-100.00,WNW,287,10.0,21.0,-999,0.00,,,0.00,,2013-05-12 18:12:00,
2013-05-12 13:22:00,51.0,-99.9,-100.00,WNW,287,10.0,21.0,-999,0.00,,,0.00,,2013-05-12 18:22:00,
2013-05-12 13:32:00,53.0,-99.9,-100.00,West,270,10.0,13.0,-999,0.00,,,0.00,,2013-05-12 18:32:00,
2013-05-12 13:42:00,53.0,-99.9,-100.00,West,270,10.0,13.0,-999,0.00,,,0.00,,2013-05-12 18:42:00,
2013-05-12 13:52:00,53.0,-99.9,-100.00,West,270,10.0,13.0,-999,0.00,,,0.00,,2013-05-12 18:52:00,
2013-05-12 14:01:00,53.0,-99.9,-100.00,WNW,284,10.0,21.0,-999,0.00,,,0.00,,2013-05-12 19:01:00,
2013-05-12 14:11:00,53.0,-99.9,-100.00,WNW,284,10.0,21.0,-999,0.00,,,0.00,,2013-05-12 19:11:00,
2013-05-12 14:22:00,53.0,-99.9,-100.00,WNW,284,10.0,21.0,-999,0.00,,,0.00,,2013-05-12 19:22:00,
2013-05-12 14:32:00,53.0,-99.9,-100.00,NW,308,11.0,16.0,-999,0.00,,,0.00,,2013-05-12 19:32:00,
2013-05-12 14:42:00,53.0,-99.9,-100.00,NW,308,11.0,16.0,-999,0.00,,,0.00,,2013-05-12 19:42:00,
2013-05-12 14:52:00,53.0,-99.9,-100.00,NW,308,11.0,16.0,-999,0.00,,,0.00,,2013-05-12 19:52:00,
2013-05-12 15:02:00,53.0,-99.9,-100.00,WNW,283,12.0,19.0,-999,0.00,,,0.00,,2013-05-12 20:02:00,
2013-05-12 15:11:00,53.0,-99.9,-100.00,WNW,283,12.0,19.0,-999,0.00,,,0.00,,2013-05-12 20:11:00,
2013-05-12 15:22:00,53.0,-99.9,-100.00,WNW,283,12.0,19.0,-999,0.00,,,0.00,,2013-05-12 20:22:00,
2013-05-12 15:32:00,54.0,-99.9,-100.00,WNW,300,10.0,18.0,-999,0.00,,,0.00,,2013-05-12 20:32:00,
2013-05-12 15:42:00,54.0,-99.9,-100.00,WNW,300,10.0,18.0,-999,0.00,,,0.00,,2013-05-12 20:42:00,
2013-05-12 15:52:00,54.0,-99.9,-100.00,WNW,300,10.0,18.0,-999,0.00,,,0.00,,2013-05-12 20:52:00,
2013-05-12 16:02:00,55.0,-99.9,-100.00,West,280,10.0,15.0,-999,0.00,,,0.00,,2013-05-12 21:02:00,
2013-05-12 16:12:00,55.0,-99.9,-100.00,West,280,10.0,15.0,-999,0.00,,,0.00,,2013-05-12 21:12:00,
2013-05-12 16:22:00,55.0,-99.9,-100.00,West,280,10.0,15.0,-999,0.00,,,0.00,,2013-05-12 21:22:00,
2013-05-12 16:33:00,56.0,-99.9,-100.00,West,272,9.0,13.0,-999,0.00,,,0.00,,2013-05-12 21:33:00,
2013-05-12 16:43:00,56.0,-99.9,-100.00,West,272,9.0,13.0,-999,0.00,,,0.00,,2013-05-12 21:43:00,
2013-05-12 16:53:00,56.0,-99.9,-100.00,West,272,9.0,13.0,-999,0.00,,,0.00,,2013-05-12 21:53:00,
2013-05-12 17:03:00,56.0,-99.9,-100.00,WNW,283,12.0,16.0,-999,0.00,,,0.00,,2013-05-12 22:03:00,
2013-05-12 17:12:00,56.0,-99.9,-100.00,WNW,283,12.0,16.0,-999,0.00,,,0.00,,2013-05-12 22:12:00,
2013-05-12 17:23:00,56.0,-99.9,-100.00,WNW,283,12.0,16.0,-999,0.00,,,0.00,,2013-05-12 22:23:00,
2013-05-12 17:33:00,57.0,-99.9,-100.00,West,280,10.0,16.0,-999,0.00,,,0.00,,2013-05-12 22:33:00,
2013-05-12 17:42:00,57.0,-99.9,-100.00,West,280,10.0,16.0,-999,0.00,,,0.00,,2013-05-12 22:42:00,
2013-05-12 17:52:00,57.0,-99.9,-100.00,West,280,10.0,16.0,-999,0.00,,,0.00,,2013-05-12 22:52:00,
2013-05-12 18:02:00,57.0,-99.9,-100.00,WNW,292,11.0,20.0,-999,0.00,,,0.00,,2013-05-12 23:02:00,
2013-05-12 18:12:00,57.0,-99.9,-100.00,WNW,292,11.0,20.0,-999,0.00,,,0.00,,2013-05-12 23:12:00,
2013-05-12 18:22:00,57.0,-99.9,-100.00,WNW,292,11.0,20.0,-999,0.00,,,0.00,,2013-05-12 23:22:00,
2013-05-12 18:30:00,58.0,-99.9,-100.00,WNW,282,8.0,12.0,-999,0.00,,,0.00,,2013-05-12 23:30:00,
2013-05-12 18:32:00,58.0,-99.9,-100.00,WNW,292,10.0,17.0,-999,0.00,,,0.00,,2013-05-12 23:32:00,
2013-05-12 18:42:00,58.0,-99.9,-100.00,WNW,292,10.0,17.0,-999,0.00,,,0.00,,2013-05-12 23:42:00,
2013-05-12 18:52:00,58.0,-99.9,-100.00,WNW,292,10.0,17.0,-999,0.00,,,0.00,,2013-05-12 23:52:00,
2013-05-12 19:01:00,58.0,-99.9,-100.00,WNW,282,8.0,12.0,-999,0.00,,,0.00,,2013-05-13 00:01:00,
2013-05-12 19:11:00,58.0,-99.9,-100.00,WNW,282,8.0,12.0,-999,0.00,,,0.00,,2013-05-13 00:11:00,
2013-05-12 19:22:00,58.0,-99.9,-100.00,WNW,282,8.0,12.0,-999,0.00,,,0.00,,2013-05-13 00:22:00,
2013-05-12 20:01:00,58.0,-99.9,-100.00,WNW,295,9.0,13.0,-999,0.00,,,0.00,,2013-05-13 01:01:00,
2013-05-12 20:11:00,58.0,-99.9,-100.00,WNW,295,9.0,13.0,-999,0.00,,,0.00,,2013-05-13 01:11:00,
2013-05-12 20:22:00,58.0,-99.9,-100.00,WNW,295,9.0,13.0,-999,0.00,,,0.00,,2013-05-13 01:22:00,
2013-05-12 20:32:00,57.0,-99.9,-100.00,WNW,300,5.0,7.0,-999,0.00,,,0.00,,2013-05-13 01:32:00,
2013-05-12 20:42:00,57.0,-99.9,-100.00,WNW,300,5.0,7.0,-999,0.00,,,0.00,,2013-05-13 01:42:00,
2013-05-12 20:52:00,57.0,-99.9,-100.00,WNW,300,5.0,7.0,-999,0.00,,,0.00,,2013-05-13 01:52:00,
2013-05-12 21:02:00,56.0,-99.9,-100.00,West,278,2.0,3.0,-999,0.00,,,0.00,,2013-05-13 02:02:00,
2013-05-12 21:11:00,56.0,-99.9,-100.00,West,278,2.0,3.0,-999,0.00,,,0.00,,2013-05-13 02:11:00,
2013-05-12 21:22:00,56.0,-99.9,-100.00,West,278,2.0,3.0,-999,0.00,,,0.00,,2013-05-13 02:22:00,
2013-05-12 21:32:00,55.0,-99.9,-100.00,West,259,2.0,3.0,-999,0.00,,,0.00,,2013-05-13 02:32:00,
2013-05-12 21:42:00,55.0,-99.9,-100.00,West,259,2.0,3.0,-999,0.00,,,0.00,,2013-05-13 02:42:00,
2013-05-12 21:52:00,55.0,-99.9,-100.00,West,259,2.0,3.0,-999,0.00,,,0.00,,2013-05-13 02:52:00,
2013-05-12 22:02:00,50.0,-99.9,-100.00,West,277,0.0,2.0,-999,0.00,,,0.00,,2013-05-13 03:02:00,
2013-05-12 22:11:00,50.0,-99.9,-100.00,West,277,0.0,2.0,-999,0.00,,,0.00,,2013-05-13 03:11:00,
2013-05-12 22:22:00,50.0,-99.9,-100.00,West,277,0.0,2.0,-999,0.00,,,0.00,,2013-05-13 03:22:00,
2013-05-12 22:33:00,49.0,-99.9,-100.00,SSE,165,0.0,0.0,-999,0.00,,,0.00,,2013-05-13 03:33:00,
2013-05-12 22:42:00,49.0,-99.9,-100.00,SSE,165,0.0,0.0,-999,0.00,,,0.00,,2013-05-13 03:42:00,
2013-05-12 22:53:00,49.0,-99.9,-100.00,SSE,165,0.0,0.0,-999,0.00,,,0.00,,2013-05-13 03:53:00,
2013-05-12 23:03:00,47.0,-99.9,-100.00,SSE,162,0.0,0.0,-999,0.00,,,0.00,,2013-05-13 04:03:00,
2013-05-12 23:12:00,47.0,-99.9,-100.00,SSE,162,0.0,0.0,-999,0.00,,,0.00,,2013-05-13 04:12:00,
2013-05-12 23:23:00,47.0,-99.9,-100.00,SSE,162,0.0,0.0,-999,0.00,,,0.00,,2013-05-13 04:23:00,
2013-05-12 23:33:00,46.0,-99.9,-100.00,West,268,0.0,0.0,-999,0.00,,,0.00,,2013-05-13 04:33:00,
2013-05-12 23:42:00,46.0,-99.9,-100.00,West,268,0.0,0.0,-999,0.00,,,0.00,,2013-05-13 04:42:00,
2013-05-12 23:53:00,46.0,-99.9,-100.00,West,268,0.0,0.0,-999,0.00,,,0.00,,2013-05-13 04:53:00,